| time (UTC) | temp C | wind direction | speed KPH | gust KPH | rain 1hr cm | rain 24hr cm | rain mn cm | humidity % | barometer mb |
| 20260507161556 | 16 | 248 | 3.2 | 14.5 | 0.00 | 0.00 | 0.00 | 81 | 1016.0 |
| 20260507160052 | 16 | 205 | 4.8 | 11.3 | 0.00 | 0.00 | 0.00 | 81 | 1016.1 |
| 20260507154559 | 16 | 306 | 1.6 | 11.3 | 0.00 | 0.00 | 0.00 | 82 | 1016.1 |
| 20260507153103 | 15 | 308 | 3.2 | 9.7 | 0.00 | 0.00 | 0.00 | 84 | 1015.9 |
| 20260507151549 | 16 | 304 | 3.2 | 9.7 | 0.00 | 0.00 | 0.00 | 82 | 1016.0 |
| 20260507150105 | 15 | 300 | 1.6 | 9.7 | 0.00 | 0.00 | 0.00 | 82 | 1016.0 |
| 20260507144548 | 16 | 306 | 0.0 | 3.2 | 0.00 | 0.00 | 0.00 | 82 | 1015.8 |
| 20260507143103 | 15 | 53 | 3.2 | 8.0 | 0.00 | 0.00 | 0.00 | 85 | 1015.8 |
| 20260507141551 | 14 | 42 | 3.2 | 8.0 | 0.00 | 0.00 | 0.00 | 86 | 1015.8 |
| 20260507140053 | 13 | 38 | 4.8 | 9.7 | 0.00 | 0.00 | 0.00 | 88 | 1015.6 |
| 20260507134548 | 12 | 59 | 3.2 | 8.0 | 0.00 | 0.00 | 0.00 | 90 | 1015.6 |
| 20260507133052 | 12 | 36 | 4.8 | 9.7 | 0.00 | 0.00 | 0.00 | 90 | 1015.5 |
| 20260507131551 | 12 | 36 | 4.8 | 8.0 | 0.00 | 0.00 | 0.00 | 91 | 1015.5 |
| 20260507124555 | 12 | 36 | 4.8 | 6.4 | 0.00 | 0.00 | 0.00 | 90 | 1015.2 |
| 20260507123043 | 12 | 53 | 1.6 | 4.8 | 0.00 | 0.00 | 0.00 | 90 | 1015.2 |
| 20260507121553 | 12 | 57 | 1.6 | 4.8 | 0.00 | 0.00 | 0.00 | 90 | 1015.2 |
| 20260507120052 | 12 | 51 | 3.2 | 6.4 | 0.00 | 0.00 | 0.00 | 89 | 1015.2 |
| 20260507114546 | 12 | 56 | 3.2 | 6.4 | 0.00 | 0.00 | 0.00 | 89 | 1015.2 |
| 20260507113049 | 12 | 61 | 1.6 | 6.4 | 0.00 | 0.00 | 0.00 | 89 | 1015.2 |
| 20260507111550 | 12 | 41 | 1.6 | 4.8 | 0.00 | 0.00 | 0.00 | 89 | 1015.2 |
| 20260507110059 | 12 | 61 | 1.6 | 4.8 | 0.00 | 0.00 | 0.00 | 89 | 1015.3 |
| 20260507104600 | 12 | 49 | 1.6 | 4.8 | 0.00 | 0.00 | 0.00 | 89 | 1015.3 |
| 20260507103115 | 12 | 51 | 3.2 | 8.0 | 0.00 | 0.00 | 0.00 | 89 | 1015.4 |
| 20260507101547 | 12 | 57 | 3.2 | 8.0 | 0.00 | 0.00 | 0.00 | 88 | 1015.4 |
| 20260507100103 | 12 | 55 | 3.2 | 6.4 | 0.00 | 0.00 | 0.00 | 88 | 1015.4 |
| 20260507094551 | 12 | 46 | 3.2 | 9.7 | 0.00 | 0.00 | 0.00 | 88 | 1015.6 |
| 20260507093050 | 12 | 32 | 4.8 | 8.0 | 0.00 | 0.00 | 0.00 | 88 | 1015.7 |
| 20260507091549 | 13 | 42 | 3.2 | 6.4 | 0.00 | 0.00 | 0.00 | 87 | 1015.8 |
| 20260507090055 | 13 | 40 | 4.8 | 8.0 | 0.00 | 0.00 | 0.00 | 87 | 1015.9 |
| 20260507084603 | 13 | 34 | 3.2 | 6.4 | 0.00 | 0.00 | 0.00 | 87 | 1016.1 |
| 20260507083051 | 13 | 59 | 3.2 | 6.4 | 0.00 | 0.00 | 0.00 | 87 | 1016.1 |
| 20260507081546 | 14 | 0 | 1.6 | 4.8 | 0.00 | 0.00 | 0.00 | 87 | 1016.3 |
| 20260507080054 | 14 | 303 | 1.6 | 4.8 | 0.00 | 0.00 | 0.00 | 88 | 1016.4 |
| 20260507074551 | 14 | 0 | 1.6 | 4.8 | 0.00 | 0.00 | 0.00 | 88 | 1016.4 |
| 20260507073052 | 15 | 0 | 0.0 | 4.8 | 0.00 | 0.00 | 0.00 | 88 | 1016.4 |
| 20260507071557 | 15 | 0 | 0.0 | 3.2 | 0.00 | 0.00 | 0.00 | 88 | 1016.5 |
| 20260507070105 | 15 | 0 | 0.0 | 4.8 | 0.00 | 0.00 | 0.00 | 88 | 1016.7 |
| 20260507064554 | 15 | 0 | 0.0 | 3.2 | 0.00 | 0.00 | 0.00 | 87 | 1016.7 |
| 20260507063048 | 15 | 147 | 0.0 | 3.2 | 0.00 | 0.00 | 0.00 | 87 | 1016.8 |
| 20260507061551 | 15 | 0 | 1.6 | 6.4 | 0.00 | 0.00 | 0.00 | 85 | 1016.7 |
| 20260507060053 | 15 | 178 | 0.0 | 3.2 | 0.00 | 0.00 | 0.00 | 84 | 1016.7 |
| 20260507054609 | 15 | 252 | 0.0 | 3.2 | 0.00 | 0.00 | 0.00 | 84 | 1016.8 |
| 20260507053102 | 15 | 305 | 3.2 | 8.0 | 0.00 | 0.00 | 0.00 | 83 | 1016.8 |
| 20260507051555 | 15 | 302 | 1.6 | 6.4 | 0.00 | 0.00 | 0.00 | 83 | 1016.8 |
| 20260507050056 | 15 | 297 | 3.2 | 8.0 | 0.00 | 0.00 | 0.00 | 83 | 1016.6 |
| 20260507044555 | 15 | 307 | 4.8 | 8.0 | 0.00 | 0.00 | 0.00 | 82 | 1016.7 |
| 20260507043049 | 15 | 311 | 3.2 | 11.3 | 0.00 | 0.00 | 0.00 | 81 | 1016.5 |
| 20260507041559 | 16 | 301 | 8.0 | 16.1 | 0.00 | 0.00 | 0.00 | 81 | 1016.6 |
| 20260507040051 | 16 | 307 | 6.4 | 14.5 | 0.00 | 0.00 | 0.00 | 81 | 1016.4 |
| 20260507034544 | 16 | 295 | 4.8 | 12.9 | 0.00 | 0.00 | 0.00 | 83 | 1016.3 |
| 20260507033043 | 16 | 303 | 6.4 | 12.9 | 0.00 | 0.00 | 0.00 | 83 | 1016.0 |
| 20260507031543 | 16 | 298 | 6.4 | 16.1 | 0.00 | 0.00 | 0.00 | 82 | 1015.9 |
| 20260507030051 | 16 | 319 | 9.7 | 16.1 | 0.00 | 0.00 | 0.00 | 81 | 1015.8 |
| 20260507024552 | 16 | 304 | 11.3 | 17.7 | 0.00 | 0.00 | 0.00 | 79 | 1015.7 |
| 20260507023045 | 17 | 307 | 8.0 | 17.7 | 0.00 | 0.00 | 0.00 | 77 | 1015.7 |
| 20260507021554 | 17 | 281 | 6.4 | 17.7 | 0.00 | 0.00 | 0.00 | 75 | 1015.5 |
| 20260507020105 | 17 | 296 | 9.7 | 20.9 | 0.00 | 0.00 | 0.00 | 72 | 1015.5 |
| 20260507014616 | 17 | 309 | 16.1 | 20.9 | 0.00 | 0.00 | 0.00 | 72 | 1015.4 |
| 20260507013051 | 18 | 306 | 9.7 | 22.5 | 0.00 | 0.00 | 0.00 | 71 | 1015.3 |
| 20260507011554 | 18 | 302 | 9.7 | 22.5 | 0.00 | 0.00 | 0.00 | 70 | 1015.5 |
| 20260507010049 | 18 | 294 | 8.0 | 22.5 | 0.00 | 0.00 | 0.00 | 70 | 1015.3 |
| 20260507004550 | 18 | 319 | 9.7 | 20.9 | 0.00 | 0.00 | 0.00 | 69 | 1015.3 |
| 20260507003050 | 18 | 253 | 9.7 | 22.5 | 0.00 | 0.00 | 0.00 | 69 | 1015.3 |
| 20260507001600 | 18 | 290 | 12.9 | 22.5 | 0.00 | 0.00 | 0.00 | 69 | 1015.1 |
| 20260507000111 | 18 | 306 | 12.9 | 24.1 | 0.00 | 0.00 | 0.00 | 68 | 1015.1 |
| 20260506234605 | 18 | 287 | 14.5 | 25.7 | 0.00 | 0.00 | 0.00 | 67 | 1015.1 |
| 20260506233050 | 19 | 311 | 14.5 | 25.7 | 0.00 | 0.00 | 0.00 | 67 | 1015.1 |
| 20260506231551 | 19 | 294 | 12.9 | 24.1 | 0.00 | 0.00 | 0.00 | 67 | 1015.1 |
| 20260506230101 | 19 | 312 | 8.0 | 25.7 | 0.00 | 0.00 | 0.00 | 67 | 1015.1 |
| 20260506224552 | 19 | 269 | 12.9 | 27.4 | 0.00 | 0.00 | 0.00 | 69 | 1015.2 |
| 20260506223050 | 18 | 302 | 8.0 | 20.9 | 0.00 | 0.00 | 0.00 | 69 | 1015.4 |
| 20260506221556 | 18 | 219 | 16.1 | 29.0 | 0.00 | 0.00 | 0.00 | 69 | 1015.4 |
| 20260506220049 | 18 | 277 | 11.3 | 24.1 | 0.00 | 0.00 | 0.00 | 69 | 1015.6 |
| 20260506214548 | 18 | 281 | 9.7 | 24.1 | 0.00 | 0.00 | 0.00 | 68 | 1015.7 |
| 20260506213055 | 18 | 265 | 16.1 | 25.7 | 0.00 | 0.00 | 0.00 | 70 | 1015.8 |
| 20260506211553 | 18 | 286 | 12.9 | 30.6 | 0.00 | 0.00 | 0.00 | 69 | 1016.1 |
| 20260506210050 | 18 | 251 | 11.3 | 24.1 | 0.00 | 0.00 | 0.00 | 68 | 1015.9 |
| 20260506204556 | 19 | 248 | 9.7 | 25.7 | 0.00 | 0.00 | 0.00 | 67 | 1016.0 |
| 20260506203053 | 18 | 252 | 8.0 | 29.0 | 0.00 | 0.00 | 0.00 | 67 | 1016.1 |
| 20260506201549 | 18 | 239 | 14.5 | 27.4 | 0.00 | 0.00 | 0.00 | 68 | 1016.2 |
| 20260506200050 | 18 | 256 | 11.3 | 25.7 | 0.00 | 0.00 | 0.00 | 68 | 1016.3 |
| 20260506194552 | 18 | 242 | 14.5 | 25.7 | 0.00 | 0.00 | 0.00 | 68 | 1016.4 |
| 20260506193053 | 18 | 250 | 14.5 | 29.0 | 0.00 | 0.00 | 0.00 | 68 | 1016.6 |
| 20260506191558 | 18 | 230 | 14.5 | 27.4 | 0.00 | 0.00 | 0.00 | 66 | 1016.5 |
| 20260506190055 | 18 | 311 | 9.7 | 20.9 | 0.00 | 0.00 | 0.00 | 67 | 1016.6 |
| 20260506184551 | 18 | 291 | 11.3 | 19.3 | 0.00 | 0.00 | 0.00 | 66 | 1016.6 |
| 20260506183101 | 19 | 289 | 4.8 | 17.7 | 0.00 | 0.00 | 0.00 | 62 | 1016.8 |
| 20260506181602 | 19 | 281 | 4.8 | 19.3 | 0.00 | 0.00 | 0.00 | 59 | 1017.0 |
| 20260506180054 | 18 | 317 | 9.7 | 22.5 | 0.00 | 0.00 | 0.00 | 62 | 1017.0 |
| 20260506174549 | 17 | 349 | 6.4 | 20.9 | 0.00 | 0.00 | 0.00 | 65 | 1017.3 |
| 20260506173116 | 17 | 360 | 8.0 | 17.7 | 0.00 | 0.00 | 0.00 | 62 | 1017.3 |
| 20260506171557 | 17 | 246 | 4.8 | 14.5 | 0.00 | 0.00 | 0.00 | 65 | 1017.4 |
| 20260506170103 | 17 | 257 | 6.4 | 17.7 | 0.00 | 0.00 | 0.00 | 65 | 1017.3 |
| 20260506164547 | 16 | 292 | 8.0 | 20.9 | 0.00 | 0.00 | 0.00 | 68 | 1017.4 |
| 20260506163056 | 16 | 252 | 8.0 | 14.5 | 0.00 | 0.00 | 0.00 | 68 | 1017.3 |